CW6054 Weather Reports


time (UTC)temp
C
wind
direction
speed
KPH
gust
KPH
rain 1hr
cm
rain 24hr
cm
rain mn
cm
humidity
%
barometer
mb
20260507103113 8 217 0.0 0.0 0.00 1.93 0.00 89 1014.4
20260507102113 8 217 0.0 0.0 0.00 1.93 0.00 89 1014.3
20260507101114 8 217 0.0 0.0 0.00 1.93 0.00 89 1014.3
20260507100113 8 217 0.0 0.0 0.00 1.93 0.00 89 1014.1
20260507095113 8 217 0.0 0.0 0.00 2.01 0.00 89 1014.1
20260507094113 8 217 0.0 0.0 0.00 2.01 0.00 89 1013.9
20260507091113 8 217 0.0 0.0 0.00 2.01 0.00 89 1013.7
20260507090113 8 284 0.0 1.6 0.00 2.01 0.00 89 1013.5
20260507085113 8 221 0.0 0.0 0.00 2.13 0.00 90 1013.4
20260507084113 7 222 0.0 0.0 0.00 2.13 0.00 90 1013.4
20260507080112 7 189 0.0 0.0 0.00 2.13 0.00 92 1013.1
20260507075112 7 189 0.0 0.0 0.00 2.31 0.00 92 1012.9
20260507071111 7 196 0.0 0.0 0.00 2.31 0.00 93 1012.8
20260507065111 7 216 0.0 0.0 0.00 2.41 0.00 93 1012.6
20260507061111 6 223 0.0 0.0 0.00 2.41 0.00 93 1012.0
20260507060111 6 223 0.0 0.0 0.00 2.41 0.00 94 1011.9
20260507053110 6 223 0.0 0.0 0.00 2.51 0.00 94 1011.7
20260507051111 6 225 0.0 0.0 0.00 2.51 0.00 94 1011.4
20260507045111 6 197 0.0 0.0 0.00 2.72 0.00 94 1011.1
20260507041110 6 167 0.0 1.6 0.00 2.72 0.00 94 1010.7
20260507040110 6 185 0.0 0.0 0.00 2.72 0.00 94 1010.6
20260507035110 6 184 0.0 0.0 0.00 3.00 0.00 94 1010.6
20260507033110 7 178 0.0 0.0 0.00 3.00 0.00 95 1010.5
20260507032110 7 188 0.0 0.0 0.00 3.00 0.00 95 1010.4
20260507031109 7 180 0.0 0.0 0.00 3.00 0.00 95 1010.3
20260507030110 7 180 0.0 0.0 0.00 3.00 0.00 95 1010.2
20260507024109 7 180 0.0 0.0 0.00 3.05 0.00 95 1010.1
20260507023109 7 181 0.0 1.6 0.00 3.05 0.00 94 1009.9
20260507022109 7 180 0.0 0.0 0.00 3.05 0.00 95 1009.9
20260507021108 7 180 0.0 0.0 0.00 3.05 0.00 95 1009.9
20260507020108 7 180 0.0 0.0 0.00 3.05 0.00 95 1009.8
20260507015108 7 180 0.0 0.0 0.00 3.05 0.00 95 1009.8
20260507014109 7 180 0.0 0.0 0.00 3.05 0.00 95 1009.6
20260507013109 7 180 0.0 0.0 0.00 3.05 0.00 95 1009.6
20260507005113 7 181 0.0 0.0 0.00 3.05 0.00 95 1009.4
20260507004113 7 181 0.0 0.0 0.00 3.05 0.00 95 1009.4
20260507002113 7 181 0.0 0.0 0.00 3.05 0.00 95 1009.2
20260507000113 7 181 0.0 0.0 0.00 3.05 0.00 95 1009.1
20260506234112 7 191 0.0 0.0 0.00 3.05 0.00 95 1009.1
20260506232112 7 195 0.0 0.0 0.00 3.05 0.00 95 1009.0
20260506231112 7 195 0.0 0.0 0.00 3.05 0.00 95 1009.0
20260506230112 7 195 0.0 0.0 0.00 3.05 0.00 95 1008.9
20260506223111 7 195 0.0 0.0 0.00 3.05 0.00 95 1008.9
20260506222111 7 195 0.0 0.0 0.00 3.05 0.00 95 1008.9
20260506221111 7 195 0.0 0.0 0.00 3.05 0.00 94 1008.9
20260506220111 7 195 0.0 0.0 0.00 3.05 0.00 94 1008.9
20260506215111 7 193 0.0 0.0 0.03 3.05 3.05 94 1008.8
20260506212111 7 182 0.0 0.0 0.03 3.05 3.05 94 1008.7
20260506205110 7 206 0.0 0.0 0.03 3.05 3.05 94 1008.4
20260506204110 7 213 0.0 0.0 0.03 3.05 3.05 94 1008.4
20260506202110 7 227 0.0 0.0 0.05 3.05 3.05 94 1008.3
20260506201110 7 171 0.0 0.0 0.08 3.05 3.05 94 1008.2
20260506200110 7 168 0.0 0.0 0.13 3.05 3.05 94 1008.1
20260506195110 7 213 0.0 0.0 0.15 3.02 3.02 94 1008.0
20260506194110 7 213 0.0 0.0 0.20 3.02 3.02 94 1008.0
20260506192109 7 213 0.0 0.0 0.28 2.97 2.97 94 1007.8
20260506190110 7 213 0.0 0.0 0.33 2.92 2.92 94 1007.7
20260506181109 7 169 0.0 0.0 0.15 2.64 2.64 94 1007.3
20260506180109 7 183 0.0 0.0 0.13 2.59 2.59 94 1007.1
20260506172112 8 204 0.0 0.0 0.05 2.49 2.49 94 1006.9
20260506171112 8 204 0.0 0.0 0.08 2.49 2.49 94 1006.9
20260506165112 8 225 0.0 0.0 0.15 2.49 2.49 94 1006.7
20260506164112 8 177 0.0 0.0 0.23 2.49 2.49 94 1006.7
20260506163112 8 162 0.0 0.0 0.28 2.46 2.46 94 1006.7
20260506160111 8 162 0.0 0.0 0.33 2.39 2.39 94 1006.7
20260506154111 8 162 0.0 0.0 0.33 2.26 2.26 94 1006.8
20260506151111 8 153 0.0 0.0 0.28 2.08 2.08 94 1006.8
20260506144111 8 180 0.0 0.0 0.33 1.93 1.93 94 1006.9
20260506143111 8 213 0.0 1.6 0.33 1.88 1.88 93 1006.8
20260506134110 8 173 0.0 0.0 0.25 1.63 1.63 93 1006.9
20260506133110 8 182 0.0 0.0 0.23 1.55 1.55 93 1006.8
20260506131110 8 175 0.0 0.0 0.18 1.45 1.45 93 1006.7
20260506130110 8 180 0.0 0.0 0.20 1.42 1.42 93 1006.6
20260506123110 8 148 0.0 1.6 0.15 1.32 1.32 93 1006.5
20260506122109 8 180 0.0 0.0 0.15 1.30 1.30 93 1006.4
20260506121109 8 169 0.0 0.0 0.13 1.27 1.27 93 1006.4
20260506115109 8 204 0.0 3.2 0.08 1.19 1.19 93 1006.3
20260506114109 8 161 0.0 0.0 0.05 1.17 1.17 93 1006.3
20260506113109 8 168 0.0 0.0 0.05 1.17 1.17 93 1006.2
20260506112108 8 195 0.0 0.0 0.05 1.17 1.17 93 1006.3